Regional Weather Roundup
Issued by NWS Glasgow, MT

Home | Current Version | Previous Version | Text Only | Print | Product List | Glossary On
Versions: 1 2 3 4 5 6 7 8 9 10 11 12 13 14 15 16 17 18 19 20 21 22 23 24 25 26 27
000
ASUS45 KGGW 241615
RWRGGW
HOURLY REGIONAL WEATHER ROUNDUP FOR NORTHEAST MONTANA
NATIONAL WEATHER SERVICE GLASGOW MONTANA
1000 AM MDT FRI MAR 24 2017

NOTE: "FAIR" INDICATES FEW OR NO CLOUDS BELOW 12,000 FEET WITH NO
SIGNIFICANT WEATHER AND/OR OBSTRUCTIONS TO VISISBILITY.

NORTHEAST MONTANA


CITY           SKY/WX    TMP DP  RH WIND       PRES   REMARKS
GLASGOW        SUNNY     40  33  76 SE8       30.06S
PLENTYWOOD       N/A     35  34  96 S2          N/A
WOLF POINT     SUNNY     39  33  79 E3        30.09S
JORDAN           N/A     46  32  58 CALM      30.04F
WINNETT          N/A     48  30  49 S1          N/A
SIDNEY         SUNNY     41  35  79 S6        30.11R
GLENDIVE       SUNNY     44  33  65 SE5       30.10R
MALTA            N/A     44  28  53 W2          N/A
SCOBEY           N/A     39  30  70 CALM      30.05S

FORT PECK REPORTS


CITY           SKY/WX    TMP DP  RH WIND       PRES   REMARKS
FORT PECK        N/A     44  32  62 SE1         N/A

SOUTHEAST MONTANA


CITY           SKY/WX    TMP DP  RH WIND       PRES   REMARKS
BILLINGS       MOSUNNY   42  33  70 SW13      30.06F
MILES CITY     SUNNY     44  37  76 S6        30.09F
BAKER          SUNNY     46  34  62 NW5       30.11R
LIVINGSTON     SUNNY     42  24  49 SE6       30.04F

CENTRAL MONTANA


CITY           SKY/WX    TMP DP  RH WIND       PRES   REMARKS
HAVRE          CLOUDY    39  28  64 CALM      30.00F
LEWISTOWN      SUNNY     47  27  45 E5        30.01F
GREAT FALLS    CLOUDY    46  22  38 S12       29.95F
CUT BANK       MOSUNNY   36  20  52 SE12      29.91F
HELENA         SUNNY     36  25  64 CALM      30.01F
BUTTE          CLOUDY    33  24  69 VRB3      30.01F
BOZEMAN        SUNNY     38  26  62 CALM      30.05S

WESTERN MONTANA


CITY           SKY/WX    TMP DP  RH WIND       PRES   REMARKS
MISSOULA       CLOUDY    31  28  89 W3        30.00F
KALISPELL      NOT AVBL

NORTH DAKOTA


CITY           SKY/WX    TMP DP  RH WIND       PRES   REMARKS
WILLISTON      SUNNY     40  30  67 SE7       30.12R
DICKINSON      SUNNY     39  31  72 SE7       30.09R
MINOT          CLOUDY    33  27  78 E9        30.17R
BISMARCK       MOSUNNY   36  31  82 E7        30.18R

SOUTHERN SASKATCHEWAN


CITY           SKY/WX    TMP DP  RH WIND       PRES   REMARKS
REGINA         MOSUNNY   34  28  80 SE13      30.12S
MOOSE JAW      MOSUNNY   34  30  86 SE7       30.10F
ESTEVAN        SUNNY     30  27  86 E9        30.15R
SWIFT CURRENT  SUNNY     37  34  87 SE10      29.99S





USA.gov is the U.S. government's official web portal to all federal, state and local government web resources and services.